Location: Black Swamp Observatory
(41.3920°N, 84.1250°W)
Time: 03:06:13
(UTC-04:00)

A-11 Canister half - Pass Details

Date: 19 January 2022
Orbit: 1527 x 1682 km, 47.3° (Epoch: 27 May)

Event Time Altitude Azimuth Distance (km) Brightness Sun altitude
Rises 21:31:57 0° 292° (WNW) 4,850 12.4 -43.7°
Reaches altitude 10° 21:36:01 10° 278° (W) 3,884 11.7 -44.5°
Maximum altitude 21:42:51 21° 234° (SW) 3,099 10.8 -45.7°
Enters shadow 21:46:39 17° 206° (SSW) 3,375 10.8 -46.4°
